Temp
14 15 15 15 15 17 15 16 17 16 17 18 16 16 16 10 8 7 6 6 6 5 4 4 5 5 6 8 9 9 10 10 11 11 11 10 9 9 9 9 9 10 10 10
14 14 15 15 14 16 15 16 15 15 15 16 15 15 14 10 9 8 6 6 6 5 4 3 4 5 5 5 6 8 9 10 10 10 8 8 7 6 6 7 7 7 7 7
14 17 13 15 14 14 14 14 14 16 15 14 15 14 12 8 7 6 6 5 5 5 4 3 3 4 5 6 6 7 8 9 8 8 8 8 7 6 6 6 6 6 6 6
14 15 15 14 15 14 14 13 14 15 15 15 14 15 14 9 7 6 5 5 4 4 3 3 2 3 4 5 7 8 8 9 8 9 9 8 5 3 3 4 4 4 5 5
15 13 14 14 14 14 15 12 13 14 13 14 13 13 13 9 10 7 5 4 4 3 3 2 2 2 3 5 5 6 7 7 7 8 8 7 4 3 3 4 4 4 4 4
14 14 13 14 13 14 11 12 11 10 11 11 13 14 13 12 12 7 6 5 4 3 2 2 2 3 3 3 4 5 6 5 6 5 5 5 4 4 4 3 3 3 3 3
14 14 14 14 13 13 13 13 13 13 11 13 11 12 14 13 10 9 7 5 4 3 2 2 2 2 2 3 3 4 4 3 4 4 4 4 4 4 3 3 2 3 2 2
12 14 13 13 14 13 11 14 13 13 12 12 10 12 14 9 6 6 6 6 4 3 2 2 2 2 3 3 3 3 3 3 3 4 3 3 3 3 2 2 2 1 1 1
12 13 13 13 13 14 13 13 13 10 2 9 12 12 12 7 7 5 4 4 4 3 2 2 2 3 3 3 3 3 3 3 3 3 3 3 2 2 2 1 1 1 0 -0
14 15 13 13 13 13 13 12 13 10 12 10 12 12 14 10 8 4 4 4 4 3 2 2 2 3 3 3 3 2 3 3 2 2 2 2 2 1 1 1 1 1 0 0
13 15 12 13 12 12 12 12 11 12 11 12 10 13 10 12 9 6 5 5 5 4 3 2 2 3 3 3 2 2 2 2 2 2 1 2 1 1 1 1 1 0 0 0
13 12 10 12 11 10 12 12 12 13 11 8 9 14 9 9 8 7 6 5 4 4 4 3 2 3 2 2 2 2 2 2 2 2 1 1 1 1 0 0 0 0 -0 -1
12 12 10 12 12 10 10 10 10 9 8 8 11 12 8 6 6 5 5 5 5 4 3 2 1 2 2 2 2 2 2 2 2 1 1 1 1 0 0 0 0 -0 -1 -1
15 11 13 16 14 11 10 9 9 12 8 11 13 14 9 8 8 5 5 4 3 4 3 2 1 1 1 2 3 2 2 2 2 1 1 1 0 0 -0 -0 -0 -1 -1 -1
12 12 9 11 12 11 11 10 8 11 13 13 14 11 11 9 8 7 6 4 4 4 3 2 2 1 1 2 2 2 3 2 2 1 1 1 0 -0 -1 -1 -1 -1 -1 -2
8 11 9 8 9 10 9 10 9 10 11 11 11 10 10 9 6 6 5 5 4 4 3 3 2 1 1 2 2 3 3 2 2 1 1 0 -1 -1 -2 -2 -2 -2 -3 -3
8 8 9 12 6 7 9 9 9 9 8 11 10 12 6 7 7 6 5 5 4 4 3 2 2 2 2 2 3 3 3 3 2 2 1 -0 -1 -2 -2 -3 -3 -3 -3 -3
7 8 8 4 6 10 8 4 7 9 8 5 5 2 5 6 5 5 3 3 3 3 3 2 3 3 4 3 3 4 3 2 2 1 -0 -1 -2 -3 -3 -4 -4 -4 -4 -4
6 7 5 7 7 7 7 5 6 7 8 4 7 5 4 3 3 4 2 2 3 2 3 4 5 5 4 4 4 3 3 2 1 0 -0 -1 -3 -4 -4 -4 -5 -4 -5 -6
4 5 9 4 7 9 8 5 5 7 7 1 4 3 -0 1 2 3 2 1 1 3 3 4 4 4 4 4 4 3 2 1 1 0 -0 -2 -4 -5 -5 -5 -5 -5 -6 -7
4 4 8 6 6 6 4 2 4 7 9 0 -0 -0 0 2 4 3 2 0 2 3 3 4 3 3 5 4 3 2 1 1 2 -1 -3 -4 -5 -5 -6 -6 -6 -6 -7 -8
6 6 5 5 5 7 2 3 6 6 1 1 1 1 1 2 3 2 1 1 1 1 2 3 2 3 4 3 2 2 1 3 -0 -2 -4 -5 -5 -6 -7 -7 -7 -8 -9 -10
6 5 5 6 6 3 4 5 4 3 2 2 2 2 2 2 2 2 2 0 0 1 2 3 2 3 3 3 2 1 2 -0 -2 -4 -5 -6 -7 -7 -8 -8 -9 -10 -10 -11
2 2 3 4 2 3 3 3 3 3 4 3 2 2 0 2 1 1 -0 -1 -1 1 1 2 1 1 2 2 1 1 -1 -2 -4 -5 -7 -7 -8 -8 -9 -10 -10 -11 -11 -12
3 2 0 1 2 3 3 2 3 2 2 1 1 0 1 -0 -0 -1 -2 -3 -2 -0 1 0 0 0 1 1 -0 -2 -4 -4 -6 -7 -8 -9 -9 -10 -10 -11 -11 -12 -12 -13
1 2 3 2 4 5 5 4 2 2 1 -0 -1 -1 -2 -2 -1 -2 -3 -1 -0 -0 -0 -1 -1 -1 -0 -2 -3 -5 -6 -7 -7 -8 -10 -10 -11 -11 -12 -12 -13 -13 -15 -15
Height
834 841 843 837 838 837 845 849 847 843 838 838 842 842 833 849 856 860 863 865 866 866 866 863 860 857 855 851 848 848 851 851 850 849 848 848 851 856 857 860 862 862 862 862
841 842 829 832 839 838 845 848 850 845 841 842 843 843 838 848 852 855 860 863 863 866 868 867 865 861 858 857 856 853 852 854 853 854 854 855 857 859 861 863 864 865 866 865
836 823 826 831 840 844 847 847 849 842 843 844 845 843 841 854 857 859 861 863 866 866 865 865 863 861 861 858 862 859 857 857 857 857 857 859 860 863 866 867 868 869 869 869
832 823 826 832 833 838 846 839 840 843 847 853 845 850 835 847 855 859 862 865 866 866 866 866 868 865 860 858 855 857 859 859 861 863 862 860 862 863 870 871 874 873 873 874
821 827 828 829 827 831 833 838 842 843 848 850 850 855 836 846 843 853 862 867 868 868 869 871 872 872 870 866 864 865 865 865 865 865 866 865 867 871 874 876 876 877 877 877
819 818 821 819 824 825 837 840 848 858 857 863 840 840 836 833 823 844 848 852 861 866 867 868 871 872 872 872 867 866 868 870 871 871 870 870 870 872 873 875 876 878 879 879
819 818 814 816 826 828 830 837 852 858 862 845 848 847 822 816 826 833 841 851 858 860 860 863 864 867 867 874 873 870 871 871 872 873 873 873 874 874 875 877 879 879 879 880
823 820 813 811 811 820 832 827 840 847 853 842 851 837 811 824 833 835 836 843 852 858 861 863 866 867 866 870 874 871 871 871 875 875 876 876 876 876 878 879 879 880 881 882
815 811 804 804 806 807 824 827 822 849 905 864 829 821 812 831 833 838 840 843 846 850 855 861 864 865 866 867 871 871 872 872 873 877 877 877 876 878 879 880 879 879 881 882
790 800 804 806 805 809 809 812 826 841 842 850 824 819 803 819 822 838 841 839 843 847 851 854 858 861 863 866 868 868 870 871 873 876 877 877 878 878 878 877 879 880 880 880
786 788 808 806 805 800 810 812 819 817 825 828 840 810 802 799 811 822 828 829 832 837 841 847 850 854 859 864 866 868 869 870 871 873 875 875 876 877 877 877 877 878 879 878
779 787 811 800 799 800 796 797 798 806 824 841 832 794 804 803 806 810 814 820 827 833 836 839 842 848 853 860 863 863 864 867 869 870 872 873 874 876 876 875 876 876 875 875
772 786 811 798 796 802 801 799 799 807 823 829 820 798 810 811 810 812 812 816 819 825 831 833 839 844 847 852 857 859 861 862 866 868 868 868 870 871 871 872 871 872 872 872
751 775 766 751 762 777 795 794 797 787 820 800 783 783 806 806 805 812 811 812 816 819 825 828 834 836 841 846 849 852 856 859 861 863 864 865 866 867 867 868 868 869 869 868
751 761 774 764 761 768 770 780 791 782 772 780 770 784 786 793 796 797 801 807 811 813 822 827 830 831 835 840 843 847 851 854 856 858 860 860 862 862 864 864 865 866 865 864
764 759 770 778 777 772 774 770 778 775 776 776 778 783 779 782 793 798 799 803 807 809 816 819 823 825 828 831 834 839 844 847 851 853 853 855 857 858 859 861 860 861 859 858
762 767 766 748 792 786 773 763 772 773 779 765 778 758 787 786 789 792 797 797 799 807 811 815 816 818 820 822 826 832 837 842 844 846 848 849 852 853 854 856 856 855 853 852
756 761 764 799 793 762 761 776 765 763 768 779 783 791 782 781 785 788 790 794 800 803 807 809 811 814 815 817 822 828 833 836 838 840 842 845 847 849 850 851 850 849 847 847
754 754 779 774 778 765 762 773 771 767 765 775 770 776 783 789 791 791 791 792 795 798 800 803 808 810 810 812 817 822 827 829 831 833 836 839 841 844 845 844 844 843 842 842
761 756 745 783 766 754 747 759 761 759 769 772 767 776 790 791 802 790 786 788 792 794 798 801 804 806 807 809 813 817 820 822 824 826 829 833 836 838 839 839 838 837 837 836
763 766 743 763 760 759 759 765 761 765 753 768 772 778 785 787 781 781 783 788 790 792 795 799 802 803 804 806 809 812 815 816 817 820 825 828 830 832 833 833 833 832 831 830
740 749 756 763 764 750 756 764 756 751 762 762 767 769 774 774 777 781 783 786 788 790 792 794 797 800 800 802 804 806 807 808 811 815 819 822 825 827 827 827 827 826 825 825
741 738 741 739 738 748 746 746 748 748 753 761 762 765 768 773 775 776 780 783 784 785 786 788 792 793 793 796 797 799 800 802 805 809 813 816 819 820 821 821 821 821 820 819
747 745 746 745 750 747 747 747 749 750 749 753 757 762 766 768 771 774 779 781 781 780 781 783 787 788 788 790 791 792 794 797 800 804 807 811 813 814 815 815 815 815 815 815
731 740 752 754 749 749 746 747 746 748 752 754 756 760 762 765 768 770 773 776 775 774 775 778 781 782 781 783 785 787 788 792 795 799 802 805 807 809 809 809 810 810 810 810
730 735 737 741 733 732 733 735 739 746 747 750 754 758 758 760 763 766 766 767 769 769 771 772 774 776 775 777 779 782 784 787 791 794 797 800 802 803 803 803 804 806 806 806
Wind_Speed
2 3 8 12 9 3 5 4 6 2 3 3 6 6 7 3 5 6 5 5 5 6 6 13 17 18 20 23 24 23 20 20 24 26 29 31 31 28 28 26 22 20 18 18
4 7 8 5 5 4 4 4 6 5 3 2 5 9 7 1 3 5 8 7 7 5 5 11 16 21 24 24 24 25 26 23 23 25 25 26 29 30 29 27 26 24 23 22
8 3 8 7 5 6 5 7 5 6 1 2 2 7 4 1 2 4 4 5 4 6 7 5 12 17 21 25 24 25 24 22 25 27 28 30 32 30 30 30 30 29 27 27
6 2 6 4 6 7 6 8 7 5 4 4 1 4 4 3 3 4 5 6 6 6 4 5 8 13 18 20 23 25 26 26 24 23 26 29 31 31 28 29 28 28 27 28
7 7 5 5 7 7 6 6 7 4 4 2 3 0 7 3 6 8 7 6 6 6 5 6 7 9 12 16 21 23 25 25 25 25 25 29 33 30 27 26 26 25 25 25
4 1 6 8 2 5 9 6 6 4 3 2 8 8 4 5 6 4 10 12 11 8 6 9 8 9 11 13 19 21 23 24 23 24 26 27 28 26 25 23 23 23 22 22
1 5 3 4 6 3 1 6 1 2 1 5 3 3 7 3 2 2 14 12 10 10 9 9 12 13 13 12 14 18 20 23 22 22 23 23 23 23 23 21 20 19 19 20
7 5 11 7 7 8 8 6 5 7 4 3 2 6 6 2 1 2 7 13 12 10 7 8 14 15 14 13 13 16 18 20 18 18 20 20 19 20 20 18 17 18 17 16
7 6 0 3 4 7 6 6 4 6 2 3 4 4 3 1 1 2 8 12 15 13 11 10 15 16 16 16 16 16 17 18 17 17 18 18 17 16 16 15 14 14 13 13
7 3 2 3 3 2 5 7 3 2 2 4 3 4 5 6 8 6 9 14 13 10 9 10 19 20 18 17 17 17 17 18 18 16 15 15 14 13 12 11 11 10 10 10
6 4 1 4 7 10 4 3 2 4 4 5 2 5 6 9 9 14 13 16 16 15 14 12 18 23 21 19 20 19 19 19 19 17 15 13 12 10 9 8 8 8 8 10
9 5 5 8 1 1 2 7 7 4 5 2 1 6 1 4 8 11 13 13 11 12 13 15 21 24 23 24 22 22 22 21 19 18 15 12 9 7 5 5 6 8 9 11
10 4 2 4 2 2 6 5 4 5 3 8 4 5 0 3 4 7 10 13 13 12 11 10 15 21 26 28 25 25 24 24 21 19 16 14 11 8 4 2 4 7 10 12
14 6 9 16 6 6 7 7 7 8 4 6 13 9 6 6 8 7 8 7 8 9 11 9 10 19 25 29 30 28 27 25 23 21 18 15 13 9 5 1 4 8 11 13
7 8 5 4 5 6 6 9 13 15 16 10 12 13 8 13 12 12 9 7 8 10 8 8 10 16 24 28 30 30 29 27 25 24 21 19 15 12 8 5 6 8 10 12
2 3 6 5 1 1 4 10 12 14 10 11 5 10 6 7 6 6 8 9 8 8 8 9 10 16 21 29 32 31 30 29 27 26 26 22 19 15 12 9 8 8 10 13
7 6 5 10 3 4 7 12 14 6 5 11 11 17 6 5 7 8 9 9 9 7 8 8 10 17 21 25 29 32 31 29 28 29 26 24 21 19 15 11 9 10 12 15
7 6 2 3 2 7 2 4 1 11 6 4 2 4 7 6 4 4 6 8 8 8 7 7 13 14 16 17 20 25 25 26 27 28 27 25 23 20 15 13 11 11 13 15
1 6 4 5 4 6 3 5 8 9 9 10 12 6 5 4 4 3 4 5 6 7 12 17 16 15 13 15 17 19 22 24 25 28 28 27 24 20 16 13 11 12 14 15
1 2 5 3 5 9 3 2 3 4 5 8 9 7 8 6 2 4 6 5 8 13 14 18 17 15 14 14 15 19 22 22 25 28 29 26 22 19 16 12 12 12 14 16
4 1 9 5 4 5 5 4 4 5 5 4 6 5 8 5 4 5 6 6 14 18 20 18 18 21 19 15 16 19 19 22 25 23 23 23 21 17 14 13 12 13 14 16
7 8 4 3 3 7 6 4 9 5 2 5 5 6 8 5 6 5 6 6 9 14 17 19 21 23 19 16 18 21 23 23 21 21 22 22 19 16 14 13 13 13 15 17
2 4 5 8 5 0 14 3 5 4 6 5 6 6 7 9 7 5 4 6 9 14 19 23 28 25 20 20 21 24 27 23 21 22 23 20 18 16 14 14 13 13 14 16
4 2 2 3 3 3 11 2 3 4 6 6 5 6 7 6 6 6 4 6 9 16 21 24 25 23 24 23 23 26 24 20 21 23 22 19 18 16 14 14 14 15 15 17
3 7 6 1 1 1 5 7 6 7 4 5 4 7 9 7 6 7 6 6 14 18 19 20 22 26 28 26 24 24 23 20 22 21 20 19 17 15 14 14 15 16 16 16
5 6 4 4 9 6 6 12 10 8 8 9 8 5 5 8 9 6 7 15 15 15 15 15 18 21 25 21 19 20 20 19 20 20 19 17 16 14 14 15 17 15 14 14
Wind_Direction
15 120 208 197 196 124 138 169 216 226 257 174 226 255 262 134 104 137 134 115 94 64 36 54 61 70 78 85 91 94 99 97 99 98 98 95 88 84 78 73 69 66 63 63
57 227 210 129 151 157 139 166 242 292 222 135 276 260 261 90 158 175 160 153 142 111 57 49 57 64 67 71 79 85 89 94 99 97 96 95 91 83 80 75 70 65 61 61
170 215 143 144 155 169 198 198 190 215 37 214 354 278 230 59 78 96 123 129 130 138 122 93 78 73 75 74 73 81 88 96 101 104 105 101 97 90 82 76 74 70 68 66
233 246 160 171 194 152 206 194 176 174 126 234 139 275 289 186 167 177 169 163 161 154 137 114 90 80 87 93 102 101 97 98 101 109 109 101 97 93 87 84 80 76 72 69
233 172 177 185 206 162 229 138 164 141 158 113 231 287 263 154 228 196 190 185 189 173 152 119 102 95 94 100 97 97 99 99 100 100 101 100 99 98 96 89 83 77 71 68
240 193 167 197 119 165 148 81 56 56 108 255 215 183 257 205 211 158 179 182 185 179 160 147 138 131 115 111 110 108 106 103 104 104 103 102 104 104 99 91 84 76 71 66
185 214 193 147 93 54 125 117 50 330 275 228 49 145 247 236 182 180 189 179 177 183 167 169 172 162 142 133 121 116 114 109 108 105 103 101 99 96 91 87 82 75 68 59
169 266 169 188 180 173 190 169 169 207 199 232 46 220 243 153 117 247 170 169 176 177 176 181 185 176 164 155 145 133 126 119 116 111 106 103 100 95 91 85 77 71 64 58
170 269 148 151 150 144 186 203 165 108 42 65 218 275 270 146 198 100 159 166 181 183 183 188 189 187 176 170 165 153 143 136 131 125 120 112 104 100 94 86 76 68 59 48
195 156 221 168 118 38 179 156 99 4 210 260 264 257 228 205 202 180 186 189 191 185 178 188 194 193 187 185 178 171 166 153 145 139 132 123 116 106 98 88 74 61 47 32
152 155 190 127 211 178 150 181 78 135 160 185 228 245 212 192 180 193 200 197 192 187 190 193 194 197 196 193 190 182 176 171 164 160 153 144 137 123 106 88 69 49 27 12
200 140 166 201 293 344 224 189 163 169 213 256 172 244 115 233 200 188 197 191 188 193 193 191 194 195 197 200 195 192 187 184 182 177 172 163 151 142 118 78 46 23 8 358
177 196 90 341 354 342 216 196 138 102 73 197 176 253 179 248 215 213 186 190 191 188 190 190 186 197 203 204 203 201 198 196 193 188 184 181 181 179 163 81 19 360 353 349
165 166 198 225 192 142 191 189 180 167 164 193 228 245 205 214 202 206 212 194 180 187 197 191 190 204 209 210 209 209 207 204 199 198 198 200 201 201 204 250 334 336 334 333
163 217 176 208 192 162 183 179 183 204 216 203 236 228 197 200 201 206 201 160 172 194 196 190 205 209 212 214 216 217 215 209 207 207 210 214 213 215 224 243 281 304 317 324
344 211 157 197 248 197 206 214 189 204 219 240 251 257 204 215 106 155 182 172 190 190 187 203 211 211 213 216 217 218 218 215 213 215 220 217 217 221 227 245 270 295 312 323
155 153 158 223 151 123 258 216 195 180 189 197 210 243 157 191 194 192 197 188 190 188 208 207 208 215 220 223 223 220 222 219 217 222 223 221 221 223 229 245 266 290 311 320
148 148 165 130 157 223 265 358 226 209 209 182 96 200 188 193 204 208 192 177 196 206 215 219 224 229 232 231 226 227 228 224 223 227 225 222 222 225 233 248 271 296 311 315
143 143 148 163 207 333 165 194 161 169 245 183 213 210 163 112 77 293 169 179 198 202 219 226 230 227 220 215 218 221 226 228 228 229 227 223 222 227 237 253 277 297 304 308
167 39 182 155 182 205 245 177 153 117 273 215 199 178 147 137 149 240 190 185 220 227 228 218 210 204 203 201 208 218 226 226 230 233 228 223 223 230 242 260 278 292 298 305
134 90 212 182 219 283 213 191 168 140 241 167 169 128 146 184 195 173 159 203 220 215 213 214 213 206 204 211 218 221 225 229 241 234 223 221 225 234 248 262 276 288 297 301
160 155 181 124 196 257 147 75 174 181 32 148 162 173 180 187 168 173 183 206 199 212 212 210 205 212 218 222 224 227 227 242 237 226 221 221 228 239 254 267 279 287 296 301
246 193 179 189 202 92 181 130 214 156 138 179 157 188 183 179 198 172 219 235 232 232 227 217 217 222 227 232 232 231 240 235 225 217 218 222 231 242 255 268 278 286 294 299
238 166 179 108 204 203 202 200 172 185 150 165 183 166 168 188 186 207 231 249 248 249 240 231 222 231 239 240 241 241 240 230 220 217 217 224 234 243 254 266 276 282 288 292
179 135 146 56 358 14 255 234 197 221 162 159 169 181 198 191 213 213 229 229 243 253 257 242 234 240 253 261 250 238 232 222 216 217 220 226 235 244 252 265 272 276 280 283
177 153 169 200 194 171 202 210 203 203 204 192 191 211 211 188 218 205 235 247 255 260 263 248 250 253 259 258 243 229 222 218 217 217 221 230 239 248 258 265 271 268 272 275